| time (UTC) | temp C | wind direction | speed KPH | gust KPH | rain 1hr cm | rain 24hr cm | rain mn cm | humidity % | barometer mb |
| 20260504081519 | 4 | 360 | 0.0 | 0.0 | 0.00 | 0.00 | 0.00 | 77 | 1013.5 |
| 20260504050004 | 5 | 360 | 0.0 | 0.0 | 0.00 | 0.00 | 0.00 | 78 | 1013.3 |
| 20260504044512 | 4 | 360 | 0.0 | 1.6 | 0.00 | 0.00 | 0.00 | 80 | 1013.2 |
| 20260504043005 | 4 | 360 | 0.0 | 1.6 | 0.00 | 0.00 | 0.00 | 81 | 1013.2 |
| 20260504041600 | 4 | 360 | 0.0 | 1.6 | 0.00 | 0.00 | 0.00 | 81 | 1013.0 |
| 20260504040116 | 4 | 360 | 0.0 | 1.6 | 0.00 | 0.00 | 0.00 | 81 | 1013.1 |
| 20260504034634 | 4 | 360 | 0.0 | 4.8 | 0.00 | 0.00 | 0.00 | 80 | 1012.9 |
| 20260504033056 | 5 | 360 | 0.0 | 0.0 | 0.00 | 0.00 | 0.00 | 80 | 1012.9 |
| 20260504031553 | 5 | 360 | 0.0 | 0.0 | 0.00 | 0.00 | 0.00 | 78 | 1012.8 |
| 20260504030118 | 5 | 360 | 0.0 | 0.0 | 0.00 | 0.00 | 0.00 | 76 | 1012.9 |
| 20260504024555 | 5 | 360 | 0.0 | 0.0 | 0.00 | 0.00 | 0.00 | 73 | 1012.9 |
| 20260504023044 | 6 | 360 | 0.0 | 0.0 | 0.00 | 0.00 | 0.00 | 71 | 1012.9 |
| 20260504021546 | 6 | 360 | 0.0 | 0.0 | 0.00 | 0.00 | 0.00 | 70 | 1012.9 |
| 20260504020039 | 6 | 360 | 0.0 | 0.0 | 0.00 | 0.00 | 0.00 | 69 | 1012.9 |
| 20260504014536 | 7 | 360 | 0.0 | 0.0 | 0.00 | 0.00 | 0.00 | 66 | 1012.9 |
| 20260504013040 | 7 | 360 | 0.0 | 0.0 | 0.00 | 0.00 | 0.00 | 64 | 1012.6 |
| 20260504011528 | 8 | 360 | 0.0 | 0.0 | 0.00 | 0.00 | 0.00 | 62 | 1012.3 |
| 20260504010024 | 8 | 360 | 0.0 | 0.0 | 0.00 | 0.00 | 0.00 | 62 | 1012.3 |
| 20260504004521 | 9 | 360 | 0.0 | 1.6 | 0.00 | 0.00 | 0.00 | 57 | 1012.0 |
| 20260504003014 | 10 | 360 | 0.0 | 0.0 | 0.00 | 0.00 | 0.00 | 54 | 1011.8 |
| 20260504001511 | 10 | 360 | 0.0 | 1.6 | 0.00 | 0.00 | 0.00 | 56 | 1011.8 |
| 20260504000007 | 11 | 360 | 0.0 | 0.0 | 0.00 | 0.00 | 0.00 | 52 | 1011.6 |
| 20260503234505 | 11 | 360 | 0.0 | 0.0 | 0.00 | 0.00 | 0.00 | 54 | 1011.5 |
| 20260503233106 | 12 | 360 | 0.0 | 3.2 | 0.00 | 0.00 | 0.00 | 53 | 1011.6 |
| 20260503231559 | 12 | 360 | 0.0 | 4.8 | 0.00 | 0.00 | 0.00 | 49 | 1011.6 |
| 20260503224557 | 12 | 360 | 0.0 | 6.4 | 0.00 | 0.00 | 0.00 | 51 | 1011.5 |
| 20260503223057 | 12 | 360 | 0.0 | 8.0 | 0.00 | 0.00 | 0.00 | 51 | 1011.5 |
| 20260503221555 | 12 | 360 | 0.0 | 6.4 | 0.00 | 0.00 | 0.00 | 47 | 1011.5 |
| 20260503220052 | 12 | 360 | 0.0 | 6.4 | 0.00 | 0.00 | 0.00 | 47 | 1011.5 |
| 20260503214600 | 13 | 360 | 0.0 | 16.1 | 0.00 | 0.00 | 0.00 | 45 | 1011.5 |
| 20260503213049 | 13 | 360 | 0.0 | 4.8 | 0.00 | 0.00 | 0.00 | 49 | 1011.4 |
| 20260503211549 | 13 | 360 | 1.6 | 14.5 | 0.00 | 0.00 | 0.00 | 45 | 1011.3 |
| 20260503210044 | 13 | 360 | 1.6 | 14.5 | 0.00 | 0.00 | 0.00 | 44 | 1011.2 |
| 20260503204552 | 13 | 360 | 1.6 | 9.7 | 0.00 | 0.00 | 0.00 | 45 | 1011.3 |
| 20260503203047 | 13 | 360 | 3.2 | 16.1 | 0.00 | 0.00 | 0.00 | 42 | 1011.4 |
| 20260503201508 | 14 | 360 | 0.0 | 14.5 | 0.00 | 0.00 | 0.00 | 40 | 1011.4 |
| 20260503200005 | 15 | 360 | 3.2 | 12.9 | 0.00 | 0.00 | 0.00 | 40 | 1011.4 |
| 20260503194534 | 15 | 360 | 0.0 | 8.0 | 0.00 | 0.00 | 0.00 | 41 | 1011.7 |
| 20260503193030 | 15 | 360 | 1.6 | 8.0 | 0.00 | 0.00 | 0.00 | 41 | 1011.8 |
| 20260503191524 | 15 | 360 | 4.8 | 9.7 | 0.00 | 0.00 | 0.00 | 39 | 1012.0 |
| 20260503190039 | 14 | 360 | 0.0 | 19.3 | 0.00 | 0.00 | 0.00 | 43 | 1012.3 |
| 20260503184521 | 13 | 360 | 1.6 | 16.1 | 0.00 | 0.00 | 0.00 | 43 | 1012.5 |
| 20260503183022 | 13 | 360 | 0.0 | 12.9 | 0.00 | 0.00 | 0.00 | 41 | 1012.8 |
| 20260503181513 | 12 | 360 | 1.6 | 9.7 | 0.00 | 0.00 | 0.00 | 41 | 1013.0 |
| 20260503180020 | 12 | 360 | 3.2 | 8.0 | 0.00 | 0.00 | 0.00 | 43 | 1013.3 |
| 20260503174512 | 12 | 360 | 1.6 | 9.7 | 0.00 | 0.00 | 0.00 | 44 | 1013.5 |
| 20260503173011 | 12 | 360 | 1.6 | 9.7 | 0.00 | 0.00 | 0.00 | 48 | 1013.7 |
| 20260503171512 | 12 | 360 | 0.0 | 17.7 | 0.00 | 0.00 | 0.00 | 48 | 1013.5 |
| 20260503140118 | 8 | 360 | 0.0 | 6.4 | 0.00 | 0.00 | 0.00 | 55 | 1014.6 |